TimeEST,TemperatureF,Dew PointF,Humidity,Sea Level PressureIn,VisibilityMPH,Wind Direction,Wind SpeedMPH,Gust SpeedMPH,PrecipitationIn,Events,Conditions,WindDirDegrees,DateUTC
12:55 AM,29.8,24.4,80,30.17,10.0,Calm,Calm,-,N/A,,Clear,0,2012-11-25 05:55:00
1:55 AM,28.2,24.6,86,30.16,10.0,Calm,Calm,-,N/A,,Clear,0,2012-11-25 06:55:00
2:55 AM,27.3,24.6,90,30.16,10.0,Calm,Calm,-,N/A,,Clear,0,2012-11-25 07:55:00
3:55 AM,26.8,24.6,92,30.17,10.0,Calm,Calm,-,N/A,,Clear,0,2012-11-25 08:55:00
4:55 AM,25.2,22.6,90,30.17,10.0,Calm,Calm,-,N/A,,Clear,0,2012-11-25 09:55:00
5:55 AM,26.1,24.3,93,30.19,10.0,Calm,Calm,-,N/A,,Clear,0,2012-11-25 10:55:00
6:55 AM,24.1,22.3,93,30.19,10.0,Calm,Calm,-,N/A,,Clear,0,2012-11-25 11:55:00
7:55 AM,25.9,24.1,93,30.21,10.0,Calm,Calm,-,N/A,,Clear,0,2012-11-25 12:55:00
8:55 AM,33.6,28.9,83,30.23,10.0,Calm,Calm,-,N/A,,Clear,0,2012-11-25 13:55:00
9:55 AM,39.4,27.3,62,30.25,10.0,Calm,Calm,-,N/A,,Clear,0,2012-11-25 14:55:00
10:55 AM,46.0,26.1,46,30.24,10.0,Calm,Calm,-,N/A,,Clear,0,2012-11-25 15:55:00
11:55 AM,52.2,21.7,30,30.22,10.0,Calm,Calm,-,N/A,,Clear,0,2012-11-25 16:55:00
12:55 PM,57.4,18.1,22,30.17,10.0,West,4.6,-,N/A,,Clear,260,2012-11-25 17:55:00
1:55 PM,60.8,16.7,18,30.14,10.0,Variable,3.5,-,N/A,,Clear,0,2012-11-25 18:55:00
2:55 PM,62.1,18.3,18,30.12,10.0,Variable,4.6,-,N/A,,Clear,0,2012-11-25 19:55:00
4:55 PM,61.7,19.6,20,30.12,10.0,Calm,Calm,-,N/A,,Clear,0,2012-11-25 21:55:00
5:55 PM,49.8,24.4,37,30.12,10.0,Calm,Calm,-,N/A,,Clear,0,2012-11-25 22:55:00
6:55 PM,42.8,24.3,48,30.13,10.0,Calm,Calm,-,N/A,,Clear,0,2012-11-25 23:55:00
7:55 PM,40.5,22.6,49,30.15,10.0,Calm,Calm,-,N/A,,Clear,0,2012-11-26 00:55:00
8:55 PM,36.5,23.5,59,30.16,10.0,Calm,Calm,-,N/A,,Clear,0,2012-11-26 01:55:00
9:55 PM,34.2,24.6,68,30.17,10.0,Calm,Calm,-,N/A,,Clear,0,2012-11-26 02:55:00
10:55 PM,30.4,24.4,79,30.17,10.0,Calm,Calm,-,N/A,,Clear,0,2012-11-26 03:55:00
11:55 PM,30.7,24.4,77,30.17,10.0,Calm,Calm,-,N/A,,Clear,0,2012-11-26 04:55:00